DW0126 Weather Reports


Display with metric or nautical units.
time (UTC)temp
F
wind
direction
speed
MPH
gust
MPH
rain 1hr
in
rain 24hr
in
rain mn
in
humidity
%
barometer
mb
20260902225716 60 180 2.0 6.0 0.00 0.13 0.08 87 1003.5
20260902224717 60 203 1.0 2.0 0.00 0.13 0.08 86 1003.2
20260902223716 60 225 1.0 4.0 0.01 0.13 0.08 86 1003.0
20260902222716 60 45 4.0 10.0 0.01 0.13 0.08 86 1002.9
20260902221716 60 248 1.0 3.0 0.01 0.13 0.08 87 1002.8
20260902220716 59 225 4.0 6.0 0.01 0.13 0.08 87 1002.7
20260902215716 59 68 1.0 2.0 0.01 0.13 0.08 88 1002.7
20260902214716 59 45 1.0 3.0 0.02 0.13 0.08 88 1002.8
20260902213716 59 0.0 4.0 0.01 0.12 0.07 88 1002.8
20260902212716 59 68 1.0 3.0 0.02 0.12 0.07 88 1002.9
20260902211716 59 0.0 1.0 0.03 0.12 0.07 88 1002.9
20260902210716 59 23 1.0 3.0 0.03 0.12 0.07 88 1002.9
20260902205736 59 225 3.0 4.0 0.04 0.12 0.07 88 1003.0
20260902204716 59 68 1.0 3.0 0.04 0.11 0.06 87 1003.0
20260902203736 60 270 1.0 2.0 0.05 0.11 0.06 88 1003.0
20260902202716 60 0.0 1.0 0.04 0.10 0.05 87 1003.3
20260902201716 60 225 5.0 8.0 0.04 0.09 0.04 86 1003.1
20260902200716 61 45 1.0 3.0 0.04 0.09 0.04 86 1003.3
20260902195716 61 68 2.0 4.0 0.03 0.08 0.03 84 1003.5
20260902194716 61 248 4.0 10.0 0.02 0.07 0.02 83 1003.8
20260902193756 62 248 3.0 6.0 0.01 0.06 0.01 81 1003.9
20260902192716 62 0 2.0 4.0 0.01 0.06 0.01 79 1003.9
20260902191716 63 68 2.0 4.0 0.00 0.05 0.00 79 1004.1
20260902190716 64 203 3.0 5.0 0.00 0.05 0.00 78 1004.2
20260902185716 64 158 4.0 7.0 0.00 0.05 0.00 76 1004.3
20260902184736 65 180 3.0 10.0 0.00 0.05 0.00 74 1004.3
20260902183716 65 68 3.0 7.0 0.00 0.05 0.00 73 1004.2
20260902182736 65 180 1.0 5.0 0.00 0.05 0.00 72 1004.4
20260902181716 65 203 2.0 4.0 0.00 0.05 0.00 72 1004.4
20260902180736 65 225 6.0 10.0 0.00 0.05 0.00 73 1004.4
20260902175716 65 45 2.0 4.0 0.00 0.05 0.00 73 1004.6
20260902174716 65 270 1.0 4.0 0.00 0.05 0.00 73 1004.6
20260902173716 65 158 3.0 7.0 0.00 0.05 0.00 73 1004.6
20260902172716 66 225 9.0 14.0 0.00 0.05 0.00 69 1004.6
20260902171716 66 248 3.0 5.0 0.00 0.05 0.00 69 1004.7
20260902170716 66 225 2.0 4.0 0.00 0.05 0.00 69 1004.6
20260902165716 65 68 2.0 4.0 0.00 0.05 0.00 72 1004.6
20260902164716 64 225 3.0 7.0 0.00 0.05 0.00 74 1004.7
20260902163716 64 0.0 1.0 0.00 0.05 0.00 75 1004.7
20260902162736 62 0.0 1.0 0.00 0.05 0.00 80 1004.7
20260902161716 61 0.0 2.0 0.00 0.05 0.00 83 1004.9
20260902160716 60 0.0 1.0 0.00 0.05 0.00 86 1004.9
20260902155716 60 0.0 1.0 0.00 0.05 0.00 89 1005.0
20260902154716 60 0.0 0.0 0.00 0.05 0.00 90 1005.1
20260902153716 59 0.0 0.0 0.00 0.05 0.00 90 1005.2
20260902152756 59 0.0 0.0 0.00 0.05 0.00 91 1005.4
20260902151716 59 0.0 0.0 0.00 0.05 0.00 92 1005.5
20260902150716 58 0.0 1.0 0.00 0.05 0.00 92 1005.7
20260902145735 58 0.0 0.0 0.00 0.05 0.00 93 1005.9
20260902144716 57 68 1.0 2.0 0.00 0.05 0.00 93 1006.0
20260902143716 57 0.0 2.0 0.00 0.05 0.00 93 1006.2
20260902142715 57 0.0 0.0 0.00 0.05 0.00 93 1006.2
20260902141716 57 0.0 0.0 0.00 0.05 0.00 94 1006.2
20260902140716 57 68 1.0 3.0 0.00 0.05 0.00 94 1006.3
20260902135716 57 0.0 0.0 0.00 0.05 0.00 94 1006.4
20260902134716 57 0.0 0.0 0.00 0.05 0.00 94 1006.6
20260902133716 57 0.0 2.0 0.00 0.05 0.00 94 1006.7
20260902132756 57 0.0 1.0 0.00 0.05 0.00 94 1006.7
20260902131716 57 0.0 1.0 0.00 0.05 0.00 94 1006.7
20260902130716 57 0.0 0.0 0.00 0.05 0.00 94 1006.7
20260902125716 57 0.0 0.0 0.00 0.05 0.00 94 1006.8
20260902124736 57 0.0 0.0 0.00 0.05 0.00 93 1007.0
20260902123716 57 0.0 0.0 0.00 0.05 0.00 94 1007.0
20260902122715 57 0.0 1.0 0.00 0.05 0.00 94 1007.2
20260902121716 57 0.0 0.0 0.00 0.05 0.00 93 1007.3
20260902120735 57 0.0 0.0 0.00 0.05 0.00 93 1007.3
20260902115716 57 0.0 0.0 0.00 0.05 0.00 93 1007.5
20260902114716 57 0.0 0.0 0.00 0.05 0.00 94 1007.6
20260902113715 57 0.0 1.0 0.00 0.05 0.00 94 1007.7
20260902112715 58 0.0 0.0 0.00 0.05 0.00 94 1007.8
20260902111716 58 0.0 0.0 0.00 0.05 0.00 94 1007.8
20260902110716 58 0.0 0.0 0.00 0.05 0.00 94 1007.8
20260902105736 58 338 1.0 2.0 0.00 0.05 0.00 94 1007.7
20260902104716 58 0.0 1.0 0.00 0.05 0.00 94 1007.8
20260902103715 58 0.0 0.0 0.00 0.05 0.00 95 1007.9
20260902102715 57 0.0 1.0 0.00 0.05 0.00 94 1007.9
20260902101716 57 0.0 0.0 0.00 0.05 0.00 95 1008.0
20260902100715 57 0.0 0.0 0.00 0.05 0.00 94 1007.9
20260902095716 57 0.0 0.0 0.00 0.05 0.00 95 1008.1
20260902094716 57 0.0 0.0 0.00 0.05 0.00 95 1008.2
20260902093716 57 0.0 0.0 0.00 0.05 0.00 94 1008.3
20260902092715 57 0.0 0.0 0.00 0.05 0.00 94 1008.3
20260902091716 57 0.0 0.0 0.00 0.05 0.00 94 1008.5
20260902090716 57 0.0 0.0 0.00 0.05 0.00 94 1008.6
20260902085715 58 0.0 0.0 0.00 0.05 0.00 94 1008.6
20260902084716 57 0.0 0.0 0.00 0.05 0.00 94 1008.7
20260902083716 57 0.0 0.0 0.00 0.05 0.00 94 1008.8
20260902082715 57 0.0 0.0 0.00 0.05 0.00 94 1008.8
20260902081716 57 0.0 0.0 0.00 0.05 0.00 94 1008.9
20260902080715 57 0.0 0.0 0.00 0.05 0.00 94 1009.0
20260902075715 57 0.0 0.0 0.00 0.05 0.00 94 1009.1
20260902074716 58 248 2.0 4.0 0.00 0.05 0.00 94 1009.2
20260902073736 58 225 2.0 3.0 0.00 0.05 0.00 94 1009.2
20260902072756 58 225 1.0 2.0 0.00 0.05 0.00 93 1009.3
20260902071716 58 0.0 1.0 0.00 0.05 0.00 93 1009.2
20260902070736 58 248 3.0 4.0 0.00 0.05 0.00 93 1009.2
20260902065716 58 270 1.0 2.0 0.00 0.05 0.05 93 1009.2
20260902064717 59 0.0 2.0 0.00 0.05 0.05 93 1009.3
20260902063717 59 0.0 0.0 0.00 0.05 0.05 93 1009.2
20260902062716 59 0.0 0.0 0.00 0.05 0.05 93 1009.2
20260902061717 59 0.0 0.0 0.00 0.05 0.05 93 1009.1
20260902060717 59 0.0 0.0 0.00 0.05 0.05 93 1009.1
20260902055716 59 248 1.0 2.0 0.00 0.05 0.05 93 1009.3
20260902054716 59 225 2.0 3.0 0.00 0.05 0.05 93 1009.4
20260902053717 59 0.0 0.0 0.00 0.05 0.05 93 1009.5
20260902052716 59 293 1.0 2.0 0.01 0.05 0.05 93 1009.7
20260902051716 60 248 2.0 4.0 0.01 0.05 0.05 93 1009.8
20260902050717 60 0.0 2.0 0.01 0.05 0.05 93 1009.9
20260902045716 60 248 2.0 3.0 0.01 0.05 0.05 93 1010.0
20260902044717 60 0.0 1.0 0.01 0.05 0.05 93 1009.9
20260902043736 60 248 2.0 3.0 0.01 0.05 0.05 92 1009.9
20260902042716 60 203 1.0 3.0 0.01 0.04 0.04 92 1010.0
20260902041716 60 248 1.0 3.0 0.01 0.04 0.04 92 1009.9
20260902040737 61 270 1.0 2.0 0.01 0.04 0.04 92 1009.9
20260902035716 61 0.0 0.0 0.01 0.04 0.04 92 1009.8
20260902034716 61 0.0 0.0 0.03 0.04 0.04 92 1009.7
20260902033736 61 0.0 0.0 0.03 0.04 0.04 91 1009.6
20260902032716 62 0.0 0.0 0.02 0.03 0.03 91 1009.6
20260902031716 62 0.0 0.0 0.02 0.03 0.03 91 1009.6
20260902030717 62 0.0 0.0 0.02 0.03 0.03 90 1009.6
20260902025716 62 0.0 0.0 0.02 0.03 0.03 90 1009.5
20260902024816 62 0.0 0.0 0.00 0.01 0.01 90 1009.5
20260902023716 62 0.0 0.0 0.00 0.01 0.01 90 1009.5
20260902022716 62 0.0 0.0 0.00 0.01 0.01 89 1009.5
20260902021716 62 293 1.0 2.0 0.00 0.01 0.01 89 1009.5
20260902020737 62 225 1.0 2.0 0.00 0.01 0.01 89 1009.6
20260902015716 62 248 1.0 2.0 0.00 0.01 0.01 88 1009.6
20260902014716 63 0.0 1.0 0.00 0.01 0.01 88 1009.5
20260902013716 63 0.0 1.0 0.00 0.01 0.01 88 1009.5
20260902012717 63 0.0 0.0 0.01 0.01 0.01 87 1009.5
20260902011716 63 0.0 0.0 0.01 0.01 0.01 87 1009.4
20260902010717 64 0.0 0.0 0.01 0.01 0.01 87 1009.4
20260902005716 64 0.0 1.0 0.01 0.01 0.01 87 1009.3
20260902004716 64 0.0 1.0 0.01 0.01 0.01 87 1009.5
20260902003717 63 0.0 0.0 0.01 0.01 0.01 86 1009.4
20260902002716 63 0.0 0.0 0.00 0.00 0.00 85 1009.4
20260902001716 64 248 2.0 3.0 0.00 0.00 0.00 84 1009.4
20260902000716 64 0.0 0.0 0.00 0.00 0.00 83 1009.4
20260901235756 64 203 2.0 3.0 0.00 0.00 0.00 81 1009.3
20260901234716 65 0.0 0.0 0.00 0.00 0.00 81 1009.3
20260901233716 65 225 2.0 4.0 0.00 0.00 0.00 81 1009.2
20260901232716 65 248 2.0 4.0 0.00 0.00 0.00 82 1009.3
20260901231716 65 225 3.0 4.0 0.00 0.00 0.00 83 1009.2
20260901230716 65 248 1.0 3.0 0.00 0.00 0.00 85 1009.3